FW3247 Weather Reports


Display with metric or nautical units.
time (UTC)temp
F
wind
direction
speed
MPH
gust
MPH
rain 1hr
in
rain 24hr
in
rain mn
in
humidity
%
barometer
mb
20260901182017 70 293 6.0 11.0 0.00 0.00 0.00 71 1010.9
20260901181017 70 293 7.0 13.0 0.00 0.00 0.00 70 1011.0
20260901180017 70 293 6.0 15.0 0.00 0.00 0.00 69 1011.1
20260901175016 70 270 7.0 16.0 0.00 0.00 0.00 71 1011.0
20260901174018 70 270 6.0 13.0 0.00 0.00 0.00 72 1011.1
20260901173016 69 270 7.0 13.0 0.00 0.00 0.00 71 1011.0
20260901172017 69 270 7.0 14.0 0.00 0.00 0.00 73 1010.9
20260901171016 69 270 6.0 14.0 0.00 0.00 0.00 73 1010.9
20260901170016 68 270 6.0 15.0 0.00 0.00 0.00 73 1010.8
20260901165703 68 270 7.0 14.0 0.00 0.00 0.00 74 1010.7
20260901010017 70 248 11.0 24.0 0.00 0.50 0.48 68 1003.9
20260901005017 70 248 13.0 25.0 0.00 0.50 0.48 67 1003.4
20260901004038 70 248 12.0 24.0 0.00 0.50 0.48 67 1003.4
20260901003057 70 248 14.0 29.0 0.00 0.50 0.48 68 1003.5
20260901002037 73 248 13.0 25.0 0.00 0.50 0.48 62 1003.3
20260901001017 74 248 13.0 23.0 0.00 0.50 0.48 60 1003.0
20260901000017 75 225 9.0 23.0 0.00 0.50 0.48 58 1002.8
20260831235037 75 248 5.0 16.0 0.00 0.50 0.48 57 1002.5
20260831234017 76 225 8.0 19.0 0.00 0.50 0.48 54 1002.4
20260831233017 76 225 8.0 20.0 0.00 0.50 0.48 53 1002.5
20260831232017 77 225 10.0 21.0 0.00 0.50 0.48 51 1002.5
20260831231024 78 225 14.0 31.0 0.00 0.50 0.48 48 1002.2
20260831230059 77 203 13.0 26.0 0.00 0.50 0.48 49 1002.0
20260831225017 77 203 12.0 23.0 0.00 0.50 0.48 48 1002.0
20260831224017 77 203 10.0 29.0 0.00 0.50 0.48 48 1001.9
20260831223017 77 203 12.0 23.0 0.00 0.50 0.48 48 1002.1
20260831222017 77 203 13.0 26.0 0.00 0.50 0.48 48 1002.1
20260831221017 78 203 14.0 32.0 0.00 0.50 0.48 48 1002.2
20260831220017 78 203 15.0 33.0 0.00 0.50 0.48 48 1002.3
20260831215024 77 203 11.0 27.0 0.00 0.50 0.48 48 1002.3
20260831214017 77 225 10.0 24.0 0.00 0.50 0.48 49 1002.5
20260831213017 77 203 10.0 22.0 0.00 0.50 0.48 48 1002.4
20260831212017 77 203 12.0 27.0 0.00 0.50 0.48 47 1002.7
20260831211017 77 203 12.0 25.0 0.00 0.50 0.48 46 1002.9
20260831210037 77 203 15.0 31.0 0.00 0.50 0.48 46 1002.9
20260831205017 77 203 12.0 26.0 0.00 0.50 0.48 45 1002.8
20260831204017 78 225 14.0 26.0 0.00 0.50 0.48 43 1002.9
20260831203017 78 225 13.0 27.0 0.00 0.50 0.48 43 1003.0
20260831202018 77 203 12.0 29.0 0.00 0.50 0.48 43 1002.9
20260831201017 77 203 11.0 23.0 0.00 0.50 0.48 45 1003.1
20260831200017 77 203 14.0 27.0 0.00 0.50 0.48 45 1003.1
20260831195017 78 203 13.0 29.0 0.00 0.50 0.48 43 1003.2
20260831194017 78 203 11.0 27.0 0.00 0.50 0.48 44 1003.4
20260831193018 78 203 13.0 30.0 0.00 0.50 0.48 45 1003.5
20260831192017 77 225 14.0 27.0 0.00 0.50 0.48 52 1003.7
20260831191018 77 203 14.0 25.0 0.00 0.50 0.48 51 1003.8
20260831190017 77 203 15.0 26.0 0.00 0.50 0.48 50 1004.0
20260831185019 77 203 14.0 28.0 0.00 0.50 0.48 48 1004.4
20260831184058 78 203 14.0 29.0 0.00 0.50 0.48 50 1004.2
20260831183017 77 203 13.0 27.0 0.00 0.50 0.48 49 1004.5